Terug naar catalogus

BREEZE-M DEB

ActiefHEO
NORAD 38569·DEBRIS·🇷🇺 Russia

Gelanceerd Mar 14, 2008 vanaf Baikonur Cosmodrome

Loading…

Volgende Passages (komende 24 uur)

TLE

VersSource: Space-Track

Epoch: Sep 6, 2026, 17:46 UTC

1 38569U 08011Q   26249.74054671  .00000053  00000-0  00000-0 0  9996
2 38569  48.9105 147.7050 6302961  89.5774 337.3245  3.03413486 24668

Volg BREEZE-M DEB in realtime met AllMySat

Download on the App Store